リニア-ヒル彗星

429P/LINEAR-Hill (2008)

English version
Home page
Updated on October 6, 2021

---------------------------------------------------------------------

・ プロフィール

符号 429P/2008 QP20
発見日 2008年8月25日、9月23日
発見光度 20.7等、17.7等
発見者 Lincoln Laboratory Near-Earth Asteroid Research project, R. E. Hill (Catalina Sky Survey)

・ 写真集

・ 軌道要素

Epoch 2008 Oct. 21.0 TT = JDT 2454760.5                                         
T 2008 Nov. 2.69161 TT                                  Rudenko                 
q   1.7231392            (2000.0)            P               Q                  
n   0.15114776     Peri.   72.03392     +0.79169777     -0.60603467             
a   3.4903441      Node   325.15355     +0.49698292     +0.71225653             
e   0.5063125      Incl.    7.74984     +0.35527823     +0.35413644             
P   6.52                                                                        
From 538 observations 2008 Aug. 25-2021 Aug. 17, mean residual 0".8.            

・ 星図

・ 光度変化

        m1 = 11.0 + 5 logΔ + 25.0 log r(t - 45)

---------------------------------------------------------------------

軌道要素はM.P.E.C. 2021-Q68に掲載されたものです。
星図はステラナビゲータ Ver.8 (アストロアーツ) で作成したものです。
光度グラフはComet for Windowsで作成したものです。

---------------------------------------------------------------------

Copyright(C) Seiichi Yoshida (comet@aerith.net). All rights reserved.